Location: Sternwarte Stuttgart
(48.7670°N, 9.1830°E)
Time: 10:01:15
(UTC+02:00)

ISS - All Passes

Search period start: 22 October 2014 00:00
Search period end: 31 October 2014 23:00
Orbit: 413 x 416 km, 51.6° (Epoch: 21 October)

Date Brightness Start Highest point End Pass type
(mag) Time Alt. Az. Time Alt. Az. Time Alt. Az.
22 Oct - 14:38:16 10° SSW 14:41:03 25° SE 14:43:51 10° E daylight
22 Oct - 16:14:09 10° WSW 16:17:30 81° NNW 16:20:52 10° ENE daylight
22 Oct - 17:51:10 10° WNW 17:54:26 49° N 17:57:42 10° ENE daylight
22 Oct - 19:27:58 10° WNW 19:31:20 89° NNE 19:34:41 10° ESE visible
22 Oct - 21:05:05 10° W 21:07:43 22° SW 21:10:21 10° SSE visible
23 Oct - 13:50:00 10° S 13:52:09 16° SE 13:54:19 10° E daylight
23 Oct - 15:25:05 10° WSW 15:28:25 75° SSE 15:31:45 10° ENE daylight
23 Oct - 17:01:59 10° W 17:05:15 50° N 17:08:32 10° ENE daylight
23 Oct - 18:38:52 10° WNW 18:42:13 69° NNE 18:45:33 10° E daylight
23 Oct - 20:15:44 10° W 20:18:46 32° SW 20:21:48 10° SSE visible
24 Oct - 13:02:55 10° SE 13:03:16 10° SE 13:03:37 10° SE daylight
24 Oct - 14:36:05 10° SW 14:39:20 51° SSE 14:42:35 10° ENE daylight
24 Oct - 16:12:45 10° W 16:16:03 56° N 16:19:21 10° ENE daylight
24 Oct - 17:49:43 10° WNW 17:53:02 57° N 17:56:20 10° E daylight
24 Oct - 19:26:29 10° WNW 19:29:44 49° SSW 19:32:58 10° SE visible
25 Oct - 13:47:12 10° SSW 13:50:15 34° SE 13:53:19 10° E daylight
25 Oct - 15:23:30 10° W 15:26:49 67° NNW 15:30:10 10° ENE daylight
25 Oct - 17:00:30 10° WNW 17:03:47 51° N 17:07:03 10° E daylight
25 Oct - 18:37:16 10° WNW 18:40:37 72° SSW 18:43:56 10° ESE daylight
25 Oct - 20:14:46 10° W 20:16:51 16° SW 20:18:55 10° S visible
26 Oct - 11:58:32 10° SSW 12:01:12 22° SE 12:03:52 10° E daylight
26 Oct - 13:34:15 10° WSW 13:37:35 86° NNW 13:40:57 10° ENE daylight
26 Oct - 15:11:14 10° WNW 15:14:29 49° N 15:17:45 10° ENE daylight
26 Oct - 16:48:03 10° WNW 16:51:24 83° NNE 16:54:45 10° ESE daylight
26 Oct - 18:25:04 10° W 18:27:49 24° SW 18:30:34 10° SSE visible
27 Oct - 11:10:15 10° S 11:12:09 15° SE 11:14:04 10° ESE daylight
27 Oct - 12:45:03 10° WSW 12:48:21 68° SSE 12:51:41 10° ENE daylight
27 Oct - 14:21:53 10° W 14:25:09 51° N 14:28:26 10° ENE daylight
27 Oct - 15:58:47 10° WNW 16:02:07 65° NNE 16:05:26 10° E daylight
27 Oct - 17:35:36 10° W 17:38:42 36° SSW 17:41:48 10° SE daylight
28 Oct - 11:55:55 10° SW 11:59:08 46° SSE 12:02:21 10° ENE daylight
28 Oct - 13:32:30 10° W 13:35:48 58° N 13:39:06 10° ENE daylight
28 Oct - 15:09:29 10° WNW 15:12:46 54° N 15:16:03 10° E daylight
28 Oct - 16:46:13 10° WNW 16:49:30 54° SSW 16:52:46 10° SE daylight
28 Oct - 18:24:36 10° WSW 18:25:35 11° SW 18:26:33 10° SSW visible
29 Oct - 11:06:57 10° SSW 11:09:55 30° SE 11:12:53 10° E daylight
29 Oct - 12:43:06 10° WSW 12:46:25 71° NNW 12:49:46 10° ENE daylight
29 Oct - 14:20:06 10° WNW 14:23:22 50° N 14:26:38 10° E daylight
29 Oct - 15:56:52 10° WNW 16:00:12 79° SSW 16:03:32 10° ESE daylight
29 Oct - 17:34:11 10° W 17:36:29 17° SW 17:38:46 10° S visible
30 Oct - 10:18:13 10° S 10:20:43 20° SE 10:23:13 10° E daylight
30 Oct - 11:53:43 10° WSW 11:57:03 87° SSE 12:00:24 10° ENE daylight
30 Oct - 13:30:39 10° WNW 13:33:55 49° N 13:37:10 10° ENE daylight
30 Oct - 15:07:29 10° WNW 15:10:50 77° NNE 15:14:10 10° ESE daylight
30 Oct - 16:44:26 10° W 16:47:17 27° SW 16:50:08 10° SSE daylight
31 Oct - 09:29:59 10° SSE 09:31:32 13° SE 09:33:05 10° ESE daylight
31 Oct - 11:04:23 10° SW 11:07:40 62° SSE 11:10:58 10° ENE daylight
31 Oct - 12:41:09 10° W 12:44:26 52° N 12:47:42 10° ENE daylight
31 Oct - 14:18:04 10° WNW 14:21:23 61° NNE 14:24:41 10° E daylight
31 Oct - 15:54:51 10° WNW 15:58:00 40° SSW 16:01:09 10° SE daylight
